Weather Roundup
Issued by NWS Springfield, MO

Home | Current Version | Previous Version | Text Only | Print | Product List | Glossary On
Versions: 1 2 3 4 5 6 7 8 9 10 11 12 13 14 15 16 17 18 19 20 21 22 23 24 25 26 27 28 29 30 31 32 33 34 35 36 37 38 39 40 41 42 43 44 45 46 47 48 49 50
000
NZUS99 KSGF 261357
HRRSGF

HOURLY WEATHER
NATIONAL WEATHER SERVICE SPRINGFIELD MO
900 AM CDT WED JUL 26 2017

......SGF CWA......

CITY           SKY/WX    TMP DP  RH WIND       PRES   REMARKS
SPRINGFIELD    SUNNY     83  73  72 SW12      30.09R
JOPLIN         CLOUDY    85  74  69 S14       30.06R HX  92
WEST PLAINS    SUNNY     84  73  69 W6        30.13R HX  90
ROLLA          SUNNY     81  73  76 SW7       30.09S
BRANSON        PTSUNNY   84  72  65 SW10      30.12S

......SURROUNDING SGF CWA......

CITY           SKY/WX    TMP DP  RH WIND       PRES   REMARKS
CHANUTE        PTSUNNY   81  72  74 S13G25    30.03R
PARSONS        CLOUDY    80  73  79 S6        30.04R
COFFEYVILLE    MOSUNNY   82  73  74 S12G20    30.02R
EMPORIA        CLOUDY    78  72  81 S13       30.00R
SILOAM SPRINGS SUNNY     82  70  65 S10       30.09F
HARRISON AR    SUNNY     83  72  69 VRB6      30.13R
NEAR YELLVILLE SUNNY     82  70  65 SW5       30.08S

......KANSAS AND MISSOURI......

CITY           SKY/WX    TMP DP  RH WIND       PRES   REMARKS
KANSAS CTY INT CLOUDY    80  74  81 S8        30.02R
DOWNTOWN KC    CLOUDY    82  75  79 SW8       30.01R
COLUMBIA       CLOUDY    84  74  71 SW9       30.05S HX  91
SEDALIA        CLOUDY    83  77  82 SW7       30.06R HX  92
ST JOSEPH      CLOUDY    78  76  93 N3        30.04R
ST LOUIS       MOSUNNY   84  74  71 CALM      30.05S HX  91
SPIRIT OF STL  MOSUNNY   84  76  76 SW6       30.04R HX  93
WICHITA        CLOUDY    84  71  65 S20       29.97R
TOPEKA         TSTM      79  75  87 W8        30.04R
OLATHE         CLOUDY    78  75  90 SW8       30.04R

......TENNESSEE......

CITY           SKY/WX    TMP DP  RH WIND       PRES   REMARKS
MEMPHIS        SUNNY     85  76  74 SW5       30.11R HX  94
NASHVILLE      MOSUNNY   85  75  72 N5        30.13R HX  93

......ARKANSAS.......

CITY           SKY/WX    TMP DP  RH WIND       PRES   REMARKS
FAYETTEVILLE   SUNNY     81  74  79 S8        30.11S
FT SMITH       SUNNY     83  75  77 E3        30.08S HX  90
LITTLE ROCK    SUNNY     83  74  74 SW7       30.10S

......OKLAHOMA.......

CITY           SKY/WX    TMP DP  RH WIND       PRES   REMARKS
TULSA          CLOUDY    84  72  67 S15       30.01S
PONCA CITY     CLOUDY    82  69  64 S7        30.00R
MCALESTER      SUNNY     83  74  74 S10G17    30.08S
OKLAHOMA CITY  PTSUNNY   83  69  62 S17       30.04R

......IOWA............

CITY           SKY/WX    TMP DP  RH WIND       PRES   REMARKS
DES MOINES     CLOUDY    76  69  79 S9        30.00R
QUAD CITIES    MOSUNNY   77  69  76 SW9       30.04S

......ILLINOIS........

CITY           SKY/WX    TMP DP  RH WIND       PRES   REMARKS
QUINCY         SUNNY     78  72  81 SE7       30.03F
CHICAGO        CLOUDY    75  63  66 SW6       30.09R



USA.gov is the U.S. government's official web portal to all federal, state and local government web resources and services.